Key West, FL

12:36 PM EDT on October 01, 2016 (GMT -0400)
Key West Naval Air Station

Weather History for KNQX - May, 2012

Change the Weather History Date:

Tuesday, May 22, 2012

  Actual Average Record
Temperature  
Mean Temperature 80 °F -  
Max Temperature 86 °F 85 °F 91 °F (1997)
Min Temperature 77 °F 76 °F 68 °F (2002)
Cooling Degree Days 16    
Growing Degree Days 30 (Base 50)    
Moisture  
Dew Point 71 °F    
Average Humidity 74    
Maximum Humidity 84    
Minimum Humidity 63    
Precipitation  
Precipitation 0.00 in - - ()
Sea Level Pressure  
Sea Level Pressure 29.94 in    
Wind  
Wind Speed 7 mph (SSE)    
Max Wind Speed 17 mph    
Max Gust Speed 23 mph    
Visibility 10 miles    
Events      
Averages and records for this station are not official NWS values.
T = Trace of Precipitation, MM = Missing Value Source: NWS Daily Summary

Daily Weather History Graph

Daily Weather History Graph

Search for Another Location

Airport or City:

Trip Planner

Search our weather history database for the weather conditions in past years. The results will help you decide how hot, cold, wet, or windy it might be!

Date:

Astronomy

May. 22, 2012 Rise Set
Actual Time 6:40 AM EDT 8:07 PM EDT
Civil Twilight 6:15 AM EDT 8:32 PM EDT
Nautical Twilight 5:45 AM EDT 9:01 PM EDT
Astronomical Twilight 5:14 AM EDT 9:32 PM EDT
Moon 7:52 AM EDT (5/22) 9:42 PM EDT (5/22)
Length of Visible Light 14h 16m
Length of Day
13h 27m
Waxing Crescent, 3% of the Moon is Illuminated
May 22
Waxing Crescent
May 28
First Quarter
Jun 4
Full
Jun 11
Last Quarter
Jun 19
New

Hourly Weather History & Observations

Time (EDT) Temp. Heat Index Dew Point Humidity Pressure Visibility Wind Dir Wind Speed Gust Speed Precip Events Conditions
12:53 AM 78.1 °F - 72.0 °F 81% 29.97 in 10.0 mi SSE 6.9 mph - N/A   Overcast
1:53 AM 78.1 °F - 70.0 °F 76% 29.96 in 10.0 mi South 4.6 mph - N/A   Scattered Clouds
2:53 AM 78.1 °F - 71.1 °F 79% 29.94 in 10.0 mi South 5.8 mph - N/A   Scattered Clouds
3:20 AM 78.8 °F - 71.6 °F 78% 29.94 in 10.0 mi South 4.6 mph - N/A   Overcast
3:41 AM 78.8 °F - 71.6 °F 78% 29.94 in 10.0 mi SSW 4.6 mph - N/A   Mostly Cloudy
3:53 AM 78.1 °F - 72.0 °F 81% 29.94 in 10.0 mi SSW 5.8 mph - N/A   Mostly Cloudy
4:53 AM 78.1 °F - 71.1 °F 79% 29.94 in 10.0 mi SSW 5.8 mph - N/A   Partly Cloudy
5:53 AM 77.0 °F - 71.1 °F 82% 29.93 in 10.0 mi SW 3.5 mph - N/A   Scattered Clouds
6:53 AM 77.0 °F - 72.0 °F 84% 29.94 in 10.0 mi SW 4.6 mph - N/A   Scattered Clouds
7:53 AM 79.0 °F - 73.0 °F 82% 29.95 in 10.0 mi Calm Calm - N/A   Scattered Clouds
8:53 AM 81.0 °F 85.2 °F 72.0 °F 74% 29.96 in 10.0 mi Calm Calm - N/A   Mostly Cloudy
9:53 AM 82.0 °F 86.3 °F 71.1 °F 69% 29.97 in 10.0 mi Variable 5.8 mph - N/A   Mostly Cloudy
10:53 AM 82.9 °F 87.5 °F 71.1 °F 67% 29.97 in 10.0 mi South 5.8 mph - N/A   Mostly Cloudy
11:53 AM 82.9 °F 87.5 °F 71.1 °F 67% 29.96 in 10.0 mi South 8.1 mph - N/A   Scattered Clouds
12:53 PM 82.9 °F 87.0 °F 70.0 °F 65% 29.97 in 10.0 mi SE 4.6 mph - N/A   Scattered Clouds
1:53 PM 82.9 °F 87.5 °F 71.1 °F 67% 29.95 in 10.0 mi SSE 4.6 mph - N/A   Scattered Clouds
2:53 PM 84.9 °F 90.1 °F 71.1 °F 63% 29.94 in 10.0 mi ESE 10.4 mph - N/A   Scattered Clouds
3:53 PM 84.9 °F 90.1 °F 71.1 °F 63% 29.92 in 10.0 mi SE 9.2 mph - N/A   Scattered Clouds
4:53 PM 82.9 °F 87.5 °F 71.1 °F 67% 29.91 in 10.0 mi SSE 10.4 mph - N/A   Scattered Clouds
5:53 PM 82.9 °F 87.5 °F 71.1 °F 67% 29.91 in 10.0 mi SE 12.7 mph - N/A   Mostly Cloudy
6:53 PM 82.0 °F 86.3 °F 71.1 °F 69% 29.91 in 10.0 mi SSE 13.8 mph - N/A   Mostly Cloudy
7:53 PM 80.1 °F 83.6 °F 71.1 °F 74% 29.91 in 10.0 mi SE 9.2 mph - N/A   Scattered Clouds
8:53 PM 80.1 °F 83.6 °F 71.1 °F 74% 29.92 in 10.0 mi SE 8.1 mph - N/A   Scattered Clouds
9:53 PM 80.1 °F 83.6 °F 71.1 °F 74% 29.92 in 10.0 mi SE 11.5 mph - N/A   Scattered Clouds
10:53 PM 80.1 °F 83.2 °F 70.0 °F 71% 29.93 in 10.0 mi SE 9.2 mph - N/A   Scattered Clouds
11:24 PM 78.8 °F - 71.6 °F 78% 29.93 in 10.0 mi ESE 17.3 mph 23.0 mph N/A   Overcast
11:53 PM 79.0 °F - 71.1 °F 77% 29.92 in 10.0 mi ESE 15.0 mph 20.7 mph N/A   Mostly Cloudy